Ozona, TX

2:17 PM CST on January 20, 2018 (GMT -0600)
Ozona Municipal

Weather History for KOZA - December, 2012

Change the Weather History Date:

Wednesday, December 19, 2012

  Actual Average Record
Temperature  
Mean Temperature 60 °F -  
Max Temperature 77 °F 61 °F 77 °F (2012)
Min Temperature 44 °F 32 °F 21 °F (2016)
Degree Days  
Heating Degree Days 4    
Growing Degree Days 10 (Base 50)    
Moisture  
Dew Point 38 °F    
Average Humidity 50    
Maximum Humidity 94    
Minimum Humidity 15    
Precipitation  
Precipitation 0.00 in - - ()
Sea Level Pressure  
Sea Level Pressure 29.81 in    
Wind  
Wind Speed 10 mph (SW)    
Max Wind Speed 31 mph    
Max Gust Speed 44 mph    
Visibility 9 miles    
Events      
Averages and records for this station are not official NWS values.
T = Trace of Precipitation, MM = Missing Value Source: NWS Daily Summary

Daily Weather History Graph

Daily Weather History Graph

Search for Another Location

Airport or City:

Trip Planner

Search our weather history database for the weather conditions in past years. The results will help you decide how hot, cold, wet, or windy it might be!

Date:

Astronomy

Dec. 19, 2012 Rise Set
Actual Time 7:37 AM CST 5:46 PM CST
Civil Twilight 7:10 AM CST 6:13 PM CST
Nautical Twilight 6:40 AM CST 6:43 PM CST
Astronomical Twilight 6:11 AM CST 7:13 PM CST
Moon 12:13 PM CST (12/19) No Moon Set
Length of Visible Light 11h 02m
Length of Day
10h 09m
Waxing Crescent, 45% of the Moon is Illuminated
Dec 19
Waxing Crescent
Dec 19
First Quarter
Dec 28
Full
Jan 4
Last Quarter
Jan 11
New

Hourly Weather History & Observations

Time (CST) Temp. Windchill Dew Point Humidity Pressure Visibility Wind Dir Wind Speed Gust Speed Precip Events Conditions
12:15 AM 44.6 °F 40.7 °F 26.6 °F 49% 29.79 in 10.0 mi South 6.9 mph - N/A   Clear
12:35 AM 50.0 °F - 30.2 °F 47% 29.79 in 10.0 mi South 5.8 mph - N/A   Clear
12:55 AM 51.8 °F - 32.0 °F 47% 29.78 in 10.0 mi Calm Calm - N/A   Clear
1:15 AM 50.0 °F - 30.2 °F 47% 29.77 in 10.0 mi Calm Calm - N/A   Clear
1:35 AM 46.4 °F - 30.2 °F 53% 29.77 in 10.0 mi Calm Calm - N/A   Clear
1:55 AM 50.0 °F - 32.0 °F 50% 29.77 in 10.0 mi SSW 3.5 mph - N/A   Clear
2:15 AM 44.6 °F 42.2 °F 30.2 °F 57% 29.77 in 10.0 mi South 4.6 mph - N/A   Clear
2:35 AM 50.0 °F - 32.0 °F 50% 29.77 in 10.0 mi South 3.5 mph - N/A   Clear
2:55 AM 55.4 °F - 41.0 °F 58% 29.78 in 10.0 mi SSW 4.6 mph - N/A   Clear
3:15 AM 55.4 °F - 42.8 °F 63% 29.77 in 10.0 mi SSW 6.9 mph - N/A   Clear
3:35 AM 55.4 °F - 46.4 °F 72% 29.77 in 10.0 mi SSW 6.9 mph - N/A   Clear
3:55 AM 55.4 °F - 46.4 °F 72% 29.77 in 10.0 mi SSW 6.9 mph - N/A   Clear
4:15 AM 53.6 °F - 46.4 °F 77% 29.76 in 10.0 mi SSW 8.1 mph - N/A   Clear
4:35 AM 51.8 °F - 46.4 °F 82% 29.76 in 10.0 mi South 5.8 mph - N/A   Clear
4:55 AM 51.8 °F - 46.4 °F 82% 29.76 in 10.0 mi South 4.6 mph - N/A   Clear
5:15 AM 48.2 °F - 44.6 °F 87% 29.75 in 10.0 mi SSW 5.8 mph - N/A   Clear
5:35 AM 50.0 °F - 48.2 °F 94% 29.74 in 10.0 mi South 8.1 mph - N/A   Clear
5:55 AM 55.4 °F - 53.6 °F 94% 29.74 in 10.0 mi SSW 9.2 mph - N/A   Scattered Clouds
6:15 AM 55.4 °F - 53.6 °F 94% 29.76 in 7.0 mi SSW 9.2 mph - N/A   Mostly Cloudy
6:35 AM 57.2 °F - 53.6 °F 88% 29.76 in 7.0 mi South 11.5 mph - N/A   Scattered Clouds
6:55 AM 57.2 °F - 55.4 °F 94% 29.76 in 7.0 mi South 11.5 mph 17.3 mph N/A   Scattered Clouds
7:15 AM 59.0 °F - 55.4 °F 88% 29.76 in 10.0 mi South 12.7 mph 17.3 mph N/A   Scattered Clouds
7:35 AM 59.0 °F - 55.4 °F 88% 29.77 in 10.0 mi South 8.1 mph 16.1 mph N/A   Scattered Clouds
7:55 AM 59.0 °F - 55.4 °F 88% 29.77 in 10.0 mi South 15.0 mph - N/A   Scattered Clouds
8:15 AM 59.0 °F - 55.4 °F 88% 29.78 in 7.0 mi SSW 8.1 mph - N/A   Scattered Clouds
8:35 AM 59.0 °F - 55.4 °F 88% 29.78 in 7.0 mi South 15.0 mph 20.7 mph N/A   Scattered Clouds
8:55 AM 59.0 °F - 55.4 °F 88% 29.78 in 10.0 mi South 15.0 mph 21.9 mph N/A   Clear
9:15 AM 59.0 °F - 55.4 °F 88% 29.78 in 10.0 mi South 15.0 mph 21.9 mph N/A   Clear
9:35 AM 59.0 °F - 55.4 °F 88% 29.79 in 10.0 mi South 18.4 mph 23.0 mph N/A   Clear
9:55 AM 60.8 °F - 55.4 °F 82% 29.79 in 10.0 mi South 11.5 mph 16.1 mph N/A   Clear
10:15 AM 60.8 °F - 55.4 °F 82% 29.80 in 10.0 mi South 10.4 mph 16.1 mph N/A   Clear
10:35 AM 60.8 °F - 55.4 °F 82% 29.80 in 10.0 mi South 15.0 mph - N/A   Clear
10:55 AM 62.6 °F - 55.4 °F 77% 29.79 in 10.0 mi South 15.0 mph 18.4 mph N/A   Clear
11:15 AM 62.6 °F - 53.6 °F 72% 29.78 in 10.0 mi SSW 15.0 mph - N/A   Clear
11:35 AM 64.4 °F - 53.6 °F 68% 29.77 in 10.0 mi South 17.3 mph - N/A   Clear
11:55 AM 64.4 °F - 53.6 °F 68% 29.76 in 10.0 mi SSW 12.7 mph 19.6 mph N/A   Clear
12:15 PM 66.2 °F - 53.6 °F 64% 29.75 in 10.0 mi South 12.7 mph - N/A   Clear
12:35 PM 68.0 °F - 53.6 °F 60% 29.73 in 10.0 mi South 12.7 mph 21.9 mph N/A   Clear
12:55 PM 69.8 °F - 51.8 °F 53% 29.72 in 10.0 mi South 15.0 mph 23.0 mph N/A   Clear
1:15 PM 71.6 °F - 50.0 °F 46% 29.72 in 10.0 mi SW 12.7 mph 19.6 mph N/A   Clear
1:35 PM 73.4 °F - 44.6 °F 36% 29.71 in 10.0 mi SSW 12.7 mph 19.6 mph N/A   Clear
1:55 PM 73.4 °F - 41.0 °F 31% 29.70 in 10.0 mi SW 11.5 mph 18.4 mph N/A   Clear
2:15 PM 75.2 °F - 41.0 °F 29% 29.69 in 10.0 mi SSW 15.0 mph 21.9 mph N/A   Clear
2:35 PM 75.2 °F - 37.4 °F 25% 29.69 in 10.0 mi SW 5.8 mph 20.7 mph N/A   Clear
2:55 PM 77.0 °F - 33.8 °F 21% 29.69 in 10.0 mi SSW 13.8 mph 21.9 mph N/A   Clear
3:15 PM 77.0 °F - 32.0 °F 19% 29.69 in 10.0 mi SW 12.7 mph 24.2 mph N/A   Clear
3:35 PM 77.0 °F - 32.0 °F 19% 29.69 in 10.0 mi SSW 13.8 mph 24.2 mph N/A   Clear
3:55 PM 77.0 °F - 33.8 °F 21% 29.69 in 10.0 mi SSW 12.7 mph 19.6 mph N/A   Clear
4:15 PM 77.0 °F - 32.0 °F 19% 29.70 in 10.0 mi SW 15.0 mph 23.0 mph N/A   Clear
4:35 PM 77.0 °F - 28.4 °F 17% 29.71 in 10.0 mi SW 11.5 mph 23.0 mph N/A   Clear
4:55 PM 75.2 °F - 30.2 °F 19% 29.72 in 10.0 mi SW 11.5 mph 18.4 mph N/A   Clear
5:15 PM 73.4 °F - 32.0 °F 22% 29.73 in 10.0 mi SW 8.1 mph - N/A   Clear
5:35 PM 71.6 °F - 33.8 °F 25% 29.74 in 10.0 mi SW 5.8 mph - N/A   Clear
5:55 PM 71.6 °F - 35.6 °F 27% 29.76 in 10.0 mi WNW 6.9 mph - N/A   Clear
6:15 PM 69.8 °F - 33.8 °F 27% 29.78 in 10.0 mi Calm Calm - N/A   Clear
6:35 PM 69.8 °F - 19.4 °F 15% 29.80 in 10.0 mi NW 13.8 mph 19.6 mph N/A   Clear
6:55 PM 69.8 °F - 23.0 °F 17% 29.82 in 7.0 mi NW 19.6 mph 29.9 mph N/A   Clear
7:15 PM 68.0 °F - 32.0 °F 26% 29.86 in 5.0 mi NW 25.3 mph 36.8 mph N/A   Haze
7:35 PM 66.2 °F - 32.0 °F 28% 29.89 in 5.0 mi NW 27.6 mph 38.0 mph N/A   Haze
7:55 PM 64.4 °F - 30.2 °F 28% 29.90 in 5.0 mi NW 16.1 mph 28.8 mph N/A   Haze
8:15 PM 62.6 °F - 28.4 °F 27% 29.93 in 5.0 mi NW 26.5 mph 35.7 mph N/A   Haze
8:35 PM 60.8 °F - 26.6 °F 27% 29.94 in 5.0 mi NW 24.2 mph 38.0 mph N/A   Haze
8:55 PM 59.0 °F - 23.0 °F 25% 29.96 in 4.0 mi NW 27.6 mph 42.6 mph N/A   Haze
9:15 PM 59.0 °F - 19.4 °F 22% 29.98 in 3.0 mi NW 31.1 mph 43.7 mph N/A   Haze
9:35 PM 57.2 °F - 14.0 °F 18% 30.01 in 5.0 mi WNW 19.6 mph 40.3 mph N/A   Haze
9:55 PM 55.4 °F - 10.4 °F 17% 30.02 in 5.0 mi NW 19.6 mph 26.5 mph N/A   Haze
10:15 PM 55.4 °F - 10.4 °F 17% 30.03 in 7.0 mi NW 12.7 mph 28.8 mph N/A   Clear
10:35 PM 53.6 °F - 10.4 °F 18% 30.05 in 5.0 mi NW 17.3 mph 33.4 mph N/A   Haze
10:55 PM 53.6 °F - 10.4 °F 18% 30.07 in 5.0 mi NNW 20.7 mph 29.9 mph N/A   Haze
11:15 PM 51.8 °F - 12.2 °F 21% 30.09 in 7.0 mi NW 18.4 mph 32.2 mph N/A   Clear
11:35 PM 51.8 °F - 12.2 °F 21% 30.10 in 7.0 mi NW 18.4 mph 31.1 mph N/A   Clear
11:55 PM 51.8 °F - 10.4 °F 19% 30.12 in 10.0 mi NNW 18.4 mph 36.8 mph N/A   Clear